Ephrata, WA
on Saturday, January 12, 2013

Saturday
Previous Day Next Day
Daily Summary
 ActualAverageRecord
Temperature
Mean Temperature °F 28°F  
Max Temperature 28°F 34°F 56°F (1953)
Min Temperature 13°F 22°F -1°F (1950)
Degree Days
Heating Degree Days 44 37  
Month to date heating degree days 446 453  
Since 1 July heating degree days 2701 3039  
Cooling Degree Days 0 0  
Month to date cooling degree days 0 0  
Year to date cooling degree days 0 0  
Moisture
Dew Point 9°F   
Average Humidity 69    
Maximum Humidity 92    
Minimum Humidity 46    
Precipitation
Precipitation 0.00 in 0.03 in 0.34 in (2003)
Month to date precipitation 0.18 0.40  
Year to date precipitation 0.18 0.40  
Wind
Wind Speed 7 mph   
Max Wind Speed 25 mph   
Max Gust Speed 25 mph   
Visibility 10 miles   
Events     

Key: T is trace of precipitation, MM is missing value
Source: NWS Daily Summary
Time(PST)TemperatureDew PointHumidity Pressure Visibility Wind DirectionWind SpeedGust SpeedPrecipitationEvents Conditions
12:53 AM 18.0°F 10.0°F 71% 30.30 in 10.0 miles NNE 4.6 mph - N/A   Clear
1:53 AM 16.0°F 12.0°F 84% 30.31 in 10.0 miles North 3.5 mph - N/A   Clear
2:53 AM 17.1°F 10.0°F 74% 30.30 in 10.0 miles North 3.5 mph - N/A   Clear
3:53 AM 19.0°F 9.0°F 65% 30.30 in 10.0 miles North 4.6 mph - N/A   Clear
4:53 AM 16.0°F 10.0°F 77% 30.31 in 10.0 miles North 4.6 mph - N/A   Clear
5:53 AM 15.1°F 10.0°F 80% 30.32 in 10.0 miles NNE 6.9 mph - N/A   Clear
6:53 AM 14.0°F 10.0°F 84% 30.33 in 10.0 miles North 5.8 mph - N/A   Clear
7:53 AM 12.9°F 10.0°F 88% 30.36 in 10.0 miles NE 4.6 mph - N/A   Clear
8:53 AM 17.1°F 10.0°F 74% 30.37 in 10.0 miles NE 4.6 mph - N/A   Clear
9:53 AM 19.0°F 12.0°F 74% 30.38 in 10.0 miles East 4.6 mph - N/A   Clear
10:53 AM 21.9°F 10.0°F 60% 30.38 in 10.0 miles NNW 9.2 mph - N/A   Clear
11:53 AM 24.1°F 10.9°F 57% 30.37 in 10.0 miles North 9.2 mph - N/A   Clear
12:53 PM 26.1°F 10.0°F 51% 30.36 in 10.0 miles North 12.7 mph - N/A   Clear
1:53 PM 28.0°F 10.0°F 47% 30.36 in 10.0 miles NE 10.4 mph - N/A   Clear
2:53 PM 27.0°F 10.0°F 49% 30.37 in 10.0 miles NE 4.6 mph - N/A   Clear
3:53 PM 26.1°F 10.0°F 51% 30.38 in 10.0 miles North 5.8 mph - N/A   Clear
4:53 PM 21.9°F 9.0°F 58% 30.39 in 10.0 miles WNW 3.5 mph - N/A   Clear
5:53 PM 19.9°F 9.0°F 62% 30.40 in 10.0 miles NNW 8.1 mph - N/A   Clear
6:53 PM 19.0°F 8.1°F 62% 30.42 in 10.0 miles NNW 4.6 mph - N/A   Clear
7:53 PM 19.0°F 7.0°F 59% 30.42 in 10.0 miles NW 10.4 mph - N/A   Clear
8:53 PM 19.0°F 6.1°F 57% 30.42 in 10.0 miles WNW 10.4 mph - N/A   Clear
9:53 PM 18.0°F 6.1°F 60% 30.40 in 10.0 miles NW 8.1 mph - N/A   Clear
10:53 PM 18.0°F 6.1°F 60% 30.40 in 10.0 miles NW 9.2 mph - N/A   Partly Cloudy
11:53 PM 19.0°F 7.0°F 59% 30.40 in 10.0 miles NW 5.8 mph - N/A   Overcast
Moon Phase
Jan. 12 Jan. 18 Jan. 26 Feb. 03 Feb. 10
Sunrise:07:42 AM (PST) Moon Rise:07:57 AM (PST)1/12
Sunset:04:31 PM (PST) Moon Set:06:15 PM (PST)1/12

Copyright © 2014 The Weather Underground, Inc.